User: anonymous   Login
Location: Camp Creek
(33.9000°N, 111.8167°W)
Time: 17:43:36
(UTC-07:00)
Language:

DELTA 2 R/B (1) - Orbit

View from above orbital plane
View from above orbital plane
View from above satellite
View from above satellite

Ground track
Ground track

The orbit data is extracted from the following two-line orbital elements,

1 27665U 03005C   18052.87545875 +.00000006 +00000-0 +36059-4 0  9992
2 27665 039.5754 278.8782 0007189 096.2945 334.6745 14.28468003786552
Epoch (UTC): 21 February 2018 21:00:39
Eccentricity: 0.0007189
inclination: 39.5754°
perigee height: 792 km
apogee height: 802 km
right ascension of ascending node: 278.8782°
argument of perigee: 96.2945°
revolutions per day: 14.28468003
mean anomaly at epoch: 334.6745°
orbit number at epoch: 78655

The dashed part of the orbit path shows where the satellite is in the earth's shadow,  

DLR